Location: B?lite?ti
(46.2833°N, 22.7333°E)
Time: 03:36:38
(UTC+00:00)

H-2A R/B - Pass Details

Date: 24 January 2021
Orbit: 734 x 836 km, 98.2° (Epoch: 26 February)

Event Time Altitude Azimuth Distance (km) Brightness Sun altitude
Rises 16:05:45 0° 130° (SE) 3,192 4.9 -7.8°
Reaches altitude 10° 16:08:19 10° 118° (ESE) 2,285 4.1 -8.2°
Maximum altitude 16:12:26 26° 63° (ENE) 1,473 2.9 -8.8°
Drops below altitude 10° 16:16:41 10° 8° (N) 2,351 4.3 -9.5°
Sets 16:19:21 0° 356° (N) 3,302 5.1 -10.0°
